This is the latest recevied weather packets stored in our database for station/object EA5JMY-10. If no packets are shown the sender has not sent any weather packets the latest 10 day(s).
| Time | Temp. | Humidity | Pressure | Rain* | Wind** | Luminosity | Snow |
|---|---|---|---|---|---|---|---|
| 1788098078 | 36.67° C | 24% | 1016.5 hPa | - | - | - | - |
| 1788097178 | 36.11° C | 23% | 1016.7 hPa | - | - | - | - |
| 1788096278 | 36.11° C | 23% | 1016.9 hPa | - | - | - | - |
| 1788095378 | 34.44° C | 32% | 1017.4 hPa | - | - | - | - |
| 1788094478 | 34.44° C | 31% | 1017.4 hPa | - | - | - | - |
| 1788093578 | 35° C | 31% | 1017.7 hPa | - | - | - | - |
| 1788092678 | 32.22° C | 43% | 1017.9 hPa | - | - | - | - |
| 1788091778 | 35.56° C | 31% | 1018.2 hPa | - | - | - | - |
| 1788090877 | 33.33° C | 37% | 1018.3 hPa | - | - | - | - |
| 1788089981 | 37.22° C | 36% | 1018.5 hPa | - | - | - | - |
| 1788089077 | 32.22° C | 48% | 1018.8 hPa | - | - | - | - |
| 1788088177 | 33.89° C | 43% | 1018.9 hPa | - | - | - | - |
| 1788087277 | 34.44° C | 41% | 1019.1 hPa | - | - | - | - |
| 1788086377 | 33.33° C | 42% | 1019.2 hPa | - | - | - | - |
| 1788085477 | 35.56° C | 37% | 1019.3 hPa | - | - | - | - |
| 1788084577 | 35° C | 37% | 1019.2 hPa | - | - | - | - |
| 1788083676 | 34.44° C | 37% | 1019.3 hPa | - | - | - | - |
| 1788082776 | 34.44° C | 37% | 1019.4 hPa | - | - | - | - |
| 1788081876 | 35.56° C | 35% | 1019.3 hPa | - | - | - | - |
| 1788080976 | 34.44° C | 36% | 1019.5 hPa | - | - | - | - |
| 1788080076 | 36.67° C | 30% | 1019.5 hPa | - | - | - | - |
| 1788079176 | 34.44° C | 34% | 1019.5 hPa | - | - | - | - |
| 1788078275 | 38.33° C | 26% | 1019.3 hPa | - | - | - | - |
| 1788077375 | 38.89° C | 27% | 1019.2 hPa | - | - | - | - |
| 1788076475 | 40.56° C | 24% | 1019.2 hPa | - | - | - | - |
* Rain since midnight (hover to see other rain measurements)
** Current wind speed in m/s (hover to see current wind gust speed)